Find Starlink 2371

NORAD ID: 47911 Int'l Des: 2021-021 Owner: SPXS Country: US Constellation: starlink operational
LEOCIRCULAR

Live Position

Loading 3D Globe...

About Starlink 2371

Description loading...

Upcoming Passes

Passes for default location (London). Set your location on the main map for personalized predictions.

Altitude History

Loading altitude history...

Two-Line Element Set

1 47911U 21021BD 26129.81365222 -.00002406 00000-0 -65845-4 0 9993
2 47911 53.1611 356.7667 0001184 91.2582 268.8555 15.31682432285270
Epoch: May 9, 2026 • Age: 7 hours

Current Status

Altitude 473.7 km
Velocity 7.63 km/s
Sub-Earth Point 39.80°N, 125.99°W
Launch Date Mar 14, 2021
Age 5.1 years
Type internet

Technical Details

Classification Payload
Mass 260.00 kg
Dry Mass 248.00 kg
Total Mass 260.00 kg
Length 0.20 m
Diameter 2.80 m
Span 9.00 m
Shape Box + pan
Manufacturer SPXS
Bus Type Starlink
Phase Status In Orbit
Owner/State SPXS/US

Most Searched